Simultaneous Nadir Overpasses (SNOs) Predictions

Prediction of SNOs between GOES-17 and METOP-B Satellite Orbit:

Table of predicted SNOs for the next 14.0 days since TLE Epoch: 2/28/2020
Index Date Time (GOES-17) GOES-17 Lat,Lon METOP-B Lat,Lon Distance(km) Time Diff (sec)
1 02/28/2020 18:39:15 -0.00,-137.22 -0.11,-136.87 40.27 80
2 03/01/2020 06:58:16 0.01,-137.22 -0.93,-141.47 483.96 80
3 03/02/2020 06:34:56 0.01,-137.22 0.16,-136.47 84.92 80
4 03/03/2020 18:53:49 -0.01,-137.22 0.81,-141.04 435.28 80
5 03/04/2020 18:35:50 -0.01,-137.21 -0.28,-136.04 133.11 80
6 03/06/2020 06:52:10 0.01,-137.19 -0.76,-140.63 392.47 80
7 03/07/2020 06:34:11 0.01,-137.18 0.33,-135.63 175.55 80
8 03/08/2020 18:50:23 -0.00,-137.17 0.70,-140.19 345.85 80
9 03/09/2020 18:32:25 0.00,-137.15 -0.44,-135.21 221.93 80
10 03/11/2020 06:48:45 -0.00,-137.13 -0.59,-139.80 304.46 80
11 03/12/2020 06:30:46 -0.00,-137.11 0.50,-134.80 262.92 80




NCC Satellite Simultaneous Nadir Overpasses (SNOs) Prediction Service
